Hourly Data Report for July 24, 2021

PRINCE RUPERT
BRITISH COLUMBIA
Current Station Operator: NAVCAN

54°17'10.000" N
130°26'41.000" W
35.40 m
1066482
71022
YPR

Download Data

Hourly Data (July 2021)
Hourly Data Report for July 24, 2021
TIME
LST
Temp Definition
°C
Dew Point Definition
°C
Rel Hum Definition
%
Precip. Amount Definition
mm

Wind Dir Definition
10's deg

Wind Spd Definition
km/h
Visibility Definition
km
Stn Press Definition
kPa
Hmdx Definition


Wind Chill Definition


Weather Definition


00:00 13.3 12.7 96 1.0 13 9 11.3 101.57     LegendNANA
01:00 13.2 12.7 97 1.8 14 11 4.0 101.57     Rain, Fog
02:00 12.1 11.6 97 4.2 28 5 2.0 101.62     Rain, Fog
03:00 11.9 11.4 97 2.8 LegendMM 4 2.0 101.63     Rain, Fog
04:00 12.0 11.5 97 0.5 9 8 16.1 101.65     Rain
05:00 12.0 11.5 97 0.2 11 4 16.1 101.69     Rain
06:00 12.1 11.6 97 0.2 9 8 16.1 101.71     LegendNANA
07:00 12.4 11.9 97 0.0 9 8 16.1 101.76     LegendNANA
08:00 13.5 12.6 95 0.0 13 9 16.1 101.79     LegendNANA
09:00 14.2 13.0 92 0.0 20 8 16.1 101.82     LegendNANA
10:00 14.1 12.3 89 0.0 18 9 16.1 101.84     LegendNANA
11:00 14.6 12.5 87 0.0 18 11 16.1 101.85     LegendNANA
12:00 15.1 12.0 82 0.0 21 8 16.1 101.87     LegendNANA
13:00 14.5 12.1 85 0.0 19 8 16.1 101.87     LegendNANA
14:00 16.7 11.1 69 0.0 16 8 16.1 101.84     LegendNANA
15:00 16.9 12.2 74 0.0 25 5 16.1 101.81     LegendNANA
16:00 15.9 12.3 79 0.0 26 8 16.1 101.79     LegendNANA
17:00 15.6 11.7 77 0.0 26 5 16.1 101.75     LegendNANA
18:00 14.7 11.3 80 0.0 24 5 16.1 101.74     LegendNANA
19:00 14.1 11.8 86 0.0 LegendMM 4 16.1 101.71     LegendNANA
20:00 14.0 12.1 88 0.0   0 16.1 101.66     LegendNANA
21:00 13.6 11.8 89 0.0 35 5 16.1 101.63     LegendNANA
22:00 13.8 11.9 88 0.0 3 4 16.1 101.61     LegendNANA
23:00 13.2 11.6 90 0.0 7 8 16.1 101.57     LegendNANA

Notes on Data Quality.

Legend

  • E = Estimated
  • M = Missing
  • NA = Not Available*
  • [empty] = Indicates an unobserved value
Date modified: